Вернуться в каталог

KUIPER-00434

АктивенСвязьLEO
NORAD 68938·PAYLOAD·🇺🇸 United States

Запущен Apr 30, 2026 с Guiana Space Centre

Loading…

Ближайшие Пролёты (ближайшие 24 часа)

TLE

СвежийSource: CelesTrak SupGP

Эпоха: Sep 14, 2026, 19:37 UTC

1 68938C 26098V   26257.81744213 -.00012028  00000+0 -17093-2 0  2574
2 68938  51.9011  23.1430 0001543 127.1192  22.1191 14.76464810    10

Отслеживайте KUIPER-00434 в реальном времени с AllMySat

Download on the App Store